Regional Weather Roundup
Issued by NWS

Home | Current Version | Previous Version | Graphics & Text | Print | Product List | Glossary On
Versions: 1 2 3 4 5 6 7 8 9 10 11 12 13 14 15 16 17 18 19 20 21 22 23 24 25 26 27 28 29 30 31 32 33 34 35 36 37 38 39 40 41 42 43 44 45 46 47 48 49 50
000
ASUS43 KIND 100159
RWRIN

WEATHER ROUNDUP FOR INDIANA
NATIONAL WEATHER SERVICE INDIANAPOLIS IN
900 PM EST FRI DEC 09 2016

NOTE: "FAIR" INDICATES FEW OR NO CLOUDS BELOW 12,000 FEET WITH NO
SIGNIFICANT WEATHER AND/OR OBSTRUCTIONS TO VISIBILITY.

* - STATION DOES NOT REPORT WEATHER SUCH AS PRECIPITATION OR FOG.

+ - STATION NOT QUALITY CONTROLLED BY THE NATIONAL WEATHER SERVICE.
    USE DATA WITH CAUTION...ESPECIALLY DEWPOINT AND RELATIVE
    HUMIDITY OBSERVATIONS.

INZ001>003-010>013-019-020-100300-
NORTHWEST INDIANA

CITY           SKY/WX    TMP DP  RH WIND       PRES   REMARKS
GARY /AIRPORT/ PTCLDY    23  14  68 W8        30.54S WCI  14
RENSSELAER +     N/A     25  18  74 W8        30.53S WCI  16

$$

LMZ046-743>745-100300-
SOUTHERN LAKE MICHIGAN

STATION/POSITION TIME  TEMP    WIND        PRES    WAVE
                       AIR SEA DIR/SP/G            HT
                 (UTC) (F)     (DEG/KT/KT) (MB)    (FT)

$$

INZ004-005-014>016-021>024-100300-
NORTH CENTRAL INDIANA

CITY           SKY/WX    TMP DP  RH WIND       PRES   REMARKS
ELKHART        LGT SNOW  23  16  74 W10       30.47F WCI  12
GOSHEN         CLOUDY    24  13  62 SW17      30.47F WCI  11
SOUTH BEND     CLOUDY    21  14  74 SW14      30.48F WCI   8

$$

INZ006>009-017-018-025>027-100300-
NORTHEAST INDIANA

CITY           SKY/WX    TMP DP  RH WIND       PRES   REMARKS
ANGOLA *+      CLOUDY    23  19  86 W7        30.44F WCI  15
FORT WAYNE     CLOUDY    24  13  62 W13       30.50S WCI  12
KENDALLVILLE + CLOUDY    24  16  72 W10       30.46S WCI  13

$$

INZ028-029-035-036-043>045-051>053-100300-
WEST CENTRAL INDIANA

CITY           SKY/WX    TMP DP  RH WIND       PRES   REMARKS
CRAWFORDSVL +  CLOUDY    22  17  81 W5        30.53S WCI  15
GREENCASTLE +  CLOUDY    25  19  80 CALM      30.54S
LAFAYETTE      CLOUDY    23  16  74 W5        30.54S WCI  17
TERRE HAUTE    CLOUDY    25  17  72 NW6       30.56F WCI  18

$$

INZ030>032-037>040-046>048-054>057-064-065-100300-
CENTRAL INDIANA

CITY           SKY/WX    TMP DP  RH WIND       PRES   REMARKS
COLUMBUS       CLOUDY    25  18  74 W5        30.56S WCI  19
GREENWOOD *+   CLOUDY    25  16  68 W3        30.53F
INDIANAPOLIS   CLOUDY    24  15  68 W6        30.52F WCI  17
-EAGLE CREEK   CLOUDY    25  14  63 W6        30.52F WCI  18
KOKOMO +       FLURRIES  24  18  77 MISG      30.52F
SHELBYVILLE    CLOUDY    25  17  72 SW6       30.52F WCI  18

$$

INZ033-034-041-042-049-050-058-059-100300-
EAST CENTRAL INDIANA

CITY           SKY/WX    TMP DP  RH WIND       PRES   REMARKS
MUNCIE         FLURRIES  24  19  81 W8        30.51F WCI  15

$$

INZ060-061-067>069-081>083-085>088-100300-
SOUTHWEST INDIANA

CITY           SKY/WX    TMP DP  RH WIND       PRES   REMARKS
EVANSVILLE     CLEAR     23  15  71 CALM      30.59R
HUNTINGBURG *+ CLOUDY    25  16  68 N3        30.57F

$$

INZ062-063-066-070>080-084-089>092-100300-
SOUTH CENTRAL AND SOUTHEAST INDIANA

CITY           SKY/WX    TMP DP  RH WIND       PRES   REMARKS
BLOOMINGTON    CLOUDY    21  16  81 SW3       30.54S
MADISON *+     CLOUDY    25  16  68 CALM      30.57F
SEYMOUR +      CLOUDY    27  16  63 W3        30.56F

$$




USA.gov is the U.S. government's official web portal to all federal, state and local government web resources and services.